DLH73U EDDF-LFPG

Flight info

Callsign DLH73U
Flight time 0h 59m
Altitude 24000
Route SOBRA2L/18 SOBRA Y180 DIK UN857 TOLVU/N0361F230 DCT RAPOR DCT VEDUS
Aircraft A319/M-SDE2E3FGIJ1LORWXYZ/HB1

Departure

Time 2026-05-08 20:44
Airport Frankfurt Main Airport (EDDF)

Arrival

Time 2026-05-08 21:43
Airport Charles de Gaulle International Airport (LFPG)
Time Latitude Longitude Altitude Speed Heading
2026-05-08 19:53 50.04880 8.59046 359 ft 0 kts 340°
2026-05-08 20:24 50.04863 8.59056 360 ft 4 kts 340°
2026-05-08 20:25 50.04838 8.59070 358 ft 4 kts 340°
2026-05-08 20:25 50.04816 8.59083 359 ft 1 kts 340°
2026-05-08 20:29 50.04816 8.59082 359 ft 0 kts 340°
2026-05-08 20:29 50.04821 8.59082 359 ft 0 kts
2026-05-08 20:29 50.04822 8.59086 359 ft 0 kts 28°
2026-05-08 20:30 50.04822 8.59091 359 ft 0 kts 61°
2026-05-08 20:30 50.04822 8.59114 343 ft 4 kts 89°
2026-05-08 20:30 50.04822 8.59161 364 ft 5 kts 89°
2026-05-08 20:30 50.04832 8.59216 367 ft 6 kts 71°
2026-05-08 20:31 50.04848 8.59278 368 ft 7 kts 68°
2026-05-08 20:31 50.04869 8.59376 364 ft 11 kts 80°
2026-05-08 20:31 50.04841 8.59480 364 ft 8 kts 136°
2026-05-08 20:31 50.04831 8.59495 364 ft 1 kts 136°
2026-05-08 20:32 50.04805 8.59529 364 ft 8 kts 140°
2026-05-08 20:32 50.04758 8.59582 364 ft 9 kts 150°
2026-05-08 20:32 50.04697 8.59607 368 ft 10 kts 170°
2026-05-08 20:32 50.04627 8.59618 369 ft 10 kts 177°
2026-05-08 20:33 50.04552 8.59622 365 ft 11 kts 178°
2026-05-08 20:33 50.04472 8.59627 365 ft 13 kts 178°
2026-05-08 20:33 50.04360 8.59633 365 ft 19 kts 178°
2026-05-08 20:33 50.04228 8.59632 364 ft 19 kts 188°
2026-05-08 20:34 50.04097 8.59576 365 ft 20 kts 204°
2026-05-08 20:34 50.03972 8.59475 367 ft 20 kts 216°
2026-05-08 20:34 50.03826 8.59096 366 ft 21 kts 249°
2026-05-08 20:35 50.03773 8.58876 368 ft 22 kts 249°
2026-05-08 20:35 50.03719 8.58650 370 ft 23 kts 250°
2026-05-08 20:35 50.03665 8.58420 365 ft 23 kts 250°
2026-05-08 20:35 50.03608 8.58182 365 ft 24 kts 249°
2026-05-08 20:36 50.03549 8.57938 364 ft 24 kts 252°
2026-05-08 20:36 50.03489 8.57689 368 ft 25 kts 249°
2026-05-08 20:36 50.03428 8.57434 369 ft 26 kts 249°
2026-05-08 20:36 50.03366 8.57170 364 ft 25 kts 250°
2026-05-08 20:37 50.03313 8.56949 366 ft 20 kts 250°
2026-05-08 20:37 50.03329 8.56805 363 ft 8 kts 346°
2026-05-08 20:37 50.03353 8.56725 363 ft 9 kts 261°
2026-05-08 20:37 50.03329 8.56628 367 ft 10 kts 248°
2026-05-08 20:38 50.03305 8.56519 364 ft 11 kts 250°
2026-05-08 20:38 50.03266 8.56363 363 ft 18 kts 249°
2026-05-08 20:38 50.03221 8.56173 365 ft 19 kts 250°
2026-05-08 20:38 50.03173 8.55975 367 ft 20 kts 249°
2026-05-08 20:39 50.03124 8.55769 364 ft 21 kts 250°
2026-05-08 20:39 50.03074 8.55557 367 ft 21 kts 250°
2026-05-08 20:39 50.03022 8.55339 365 ft 22 kts 249°
2026-05-08 20:39 50.02968 8.55115 365 ft 23 kts 250°
2026-05-08 20:40 50.02913 8.54886 365 ft 23 kts 249°
2026-05-08 20:40 50.02853 8.54643 366 ft 24 kts 250°
2026-05-08 20:40 50.02795 8.54399 365 ft 25 kts 249°
2026-05-08 20:40 50.02735 8.54144 364 ft 25 kts 250°
2026-05-08 20:41 50.02677 8.53899 366 ft 17 kts 249°
2026-05-08 20:41 50.02637 8.53742 364 ft 16 kts 239°
2026-05-08 20:41 50.02552 8.53633 369 ft 16 kts 220°
2026-05-08 20:41 50.02496 8.53486 368 ft 16 kts 249°
2026-05-08 20:42 50.02456 8.53319 365 ft 17 kts 249°
2026-05-08 20:42 50.02415 8.53147 365 ft 17 kts 249°
2026-05-08 20:42 50.02375 8.52980 366 ft 15 kts 249°
2026-05-08 20:42 50.02336 8.52823 368 ft 16 kts 249°
2026-05-08 20:43 50.02301 8.52672 369 ft 12 kts 250°
2026-05-08 20:43 50.02233 8.52607 368 ft 16 kts 183°
2026-05-08 20:43 50.01978 8.52608 364 ft 71 kts 179°
2026-05-08 20:43 50.01222 8.52615 371 ft 143 kts 179°
2026-05-08 20:44 50.00120 8.52633 803 ft 161 kts 178°
2026-05-08 20:44 49.98984 8.52674 1528 ft 164 kts 175°
2026-05-08 20:44 49.97799 8.52744 2141 ft 178 kts 174°
2026-05-08 20:44 49.96497 8.52843 2664 ft 196 kts 174°
2026-05-08 20:45 49.95049 8.52964 3078 ft 223 kts 175°
2026-05-08 20:45 49.93993 8.53044 3516 ft 233 kts 176°
2026-05-08 20:45 49.91819 8.53146 4825 ft 236 kts 178°
2026-05-08 20:45 49.90190 8.53219 5831 ft 238 kts 179°
2026-05-08 20:46 49.88528 8.53315 6848 ft 239 kts 179°
2026-05-08 20:46 49.86861 8.53135 7736 ft 245 kts 192°
2026-05-08 20:46 49.85171 8.52304 8318 ft 265 kts 201°
2026-05-08 20:46 49.83399 8.51253 9062 ft 278 kts 202°
2026-05-08 20:47 49.81571 8.50167 9988 ft 284 kts 202°
2026-05-08 20:47 49.79685 8.49051 10615 ft 300 kts 204°
2026-05-08 20:47 49.77895 8.47250 11143 ft 315 kts 224°
2026-05-08 20:47 49.76644 8.44432 11867 ft 324 kts 247°
2026-05-08 20:48 49.76187 8.40999 12644 ft 331 kts 267°
2026-05-08 20:48 49.76542 8.37494 12948 ft 331 kts 284°
2026-05-08 20:48 49.77165 8.34111 13107 ft 331 kts 284°
2026-05-08 20:48 49.77757 8.30668 13194 ft 331 kts 283°
2026-05-08 20:49 49.78315 8.27214 13108 ft 331 kts 282°
2026-05-08 20:49 49.78853 8.23753 13118 ft 331 kts 282°
2026-05-08 20:49 49.79384 8.20286 13120 ft 331 kts 282°
2026-05-08 20:49 49.79920 8.16821 13124 ft 331 kts 282°
2026-05-08 20:50 49.80460 8.13361 13177 ft 334 kts 282°
2026-05-08 20:50 49.81013 8.09831 14021 ft 338 kts 282°
2026-05-08 20:50 49.81572 8.06288 14871 ft 340 kts 282°
2026-05-08 20:50 49.82139 8.02722 15669 ft 343 kts 283°
2026-05-08 20:51 49.82713 7.99124 16454 ft 346 kts 283°
2026-05-08 20:51 49.83291 7.95500 17232 ft 349 kts 283°
2026-05-08 20:51 49.83872 7.91830 17998 ft 352 kts 283°
2026-05-08 20:51 49.84446 7.88171 18696 ft 356 kts 283°
2026-05-08 20:52 49.85033 7.84375 19371 ft 359 kts 282°
2026-05-08 20:52 49.85617 7.80591 20042 ft 363 kts 282°
2026-05-08 20:52 49.86208 7.76780 20710 ft 366 kts 283°
2026-05-08 20:52 49.86803 7.72980 21373 ft 369 kts 283°
2026-05-08 20:53 49.87416 7.69099 22033 ft 373 kts 283°
2026-05-08 20:53 49.88030 7.65182 22689 ft 376 kts 283°
2026-05-08 20:53 49.88646 7.61217 23345 ft 380 kts 283°
2026-05-08 20:53 49.89262 7.57222 23912 ft 383 kts 282°
2026-05-08 20:54 49.89881 7.53193 24084 ft 384 kts 283°
2026-05-08 20:54 49.90490 7.49213 24127 ft 371 kts 283°
2026-05-08 20:54 49.91074 7.45404 24132 ft 356 kts 283°
2026-05-08 20:54 49.91642 7.41695 24140 ft 352 kts 283°
2026-05-08 20:55 49.92204 7.38005 24141 ft 351 kts 282°
2026-05-08 20:55 49.92763 7.34324 24138 ft 350 kts 282°
2026-05-08 20:55 49.93322 7.30643 24139 ft 350 kts 283°
2026-05-08 20:55 49.93875 7.27011 24137 ft 350 kts 283°
2026-05-08 20:56 49.94431 7.23337 24137 ft 350 kts 283°
2026-05-08 20:56 49.94986 7.19650 24141 ft 350 kts 282°
2026-05-08 20:56 49.95538 7.15963 24141 ft 350 kts 282°
2026-05-08 20:56 49.96088 7.12280 24138 ft 350 kts 282°
2026-05-08 20:57 49.96638 7.08591 24138 ft 350 kts 282°
2026-05-08 20:57 49.97188 7.04907 24135 ft 350 kts 282°
2026-05-08 20:57 49.97736 7.01226 24134 ft 350 kts 283°
2026-05-08 20:57 49.98285 6.97534 24109 ft 350 kts 282°
2026-05-08 20:58 49.98830 6.93845 24113 ft 350 kts 282°
2026-05-08 20:58 49.99237 6.90118 24109 ft 350 kts 274°
2026-05-08 20:58 49.99215 6.86340 24109 ft 350 kts 267°
2026-05-08 20:58 49.99057 6.82622 24104 ft 350 kts 261°
2026-05-08 20:59 49.98364 6.79005 24104 ft 350 kts 249°
2026-05-08 20:59 49.97464 6.75489 24101 ft 350 kts 248°
2026-05-08 20:59 49.96559 6.71974 24102 ft 351 kts 248°
2026-05-08 20:59 49.95649 6.68461 24099 ft 351 kts 248°
2026-05-08 21:00 49.94735 6.64950 24101 ft 351 kts 248°
2026-05-08 21:00 49.93820 6.61444 24100 ft 351 kts 248°
2026-05-08 21:00 49.92917 6.57983 24102 ft 351 kts 249°
2026-05-08 21:00 49.92031 6.54462 24103 ft 351 kts 249°
2026-05-08 21:01 49.91166 6.50918 24104 ft 351 kts 250°
2026-05-08 21:01 49.90310 6.47379 24105 ft 351 kts 250°
2026-05-08 21:01 49.89451 6.43833 24104 ft 351 kts 250°
2026-05-08 21:01 49.88589 6.40293 24102 ft 351 kts 250°
2026-05-08 21:02 49.87722 6.36755 24104 ft 351 kts 250°
2026-05-08 21:02 49.86851 6.33221 24107 ft 351 kts 249°
2026-05-08 21:02 49.85975 6.29686 24106 ft 351 kts 249°
2026-05-08 21:02 49.85099 6.26149 24100 ft 352 kts 249°
2026-05-08 21:03 49.84233 6.22663 24101 ft 352 kts 249°
2026-05-08 21:03 49.83352 6.19127 24099 ft 352 kts 249°
2026-05-08 21:03 49.82471 6.15595 24099 ft 352 kts 249°
2026-05-08 21:03 49.81588 6.12059 24106 ft 352 kts 249°
2026-05-08 21:04 49.80705 6.08530 24100 ft 352 kts 249°
2026-05-08 21:04 49.79820 6.04994 24099 ft 352 kts 249°
2026-05-08 21:04 49.78936 6.01460 24101 ft 352 kts 249°
2026-05-08 21:04 49.78050 5.97925 24101 ft 352 kts 249°
2026-05-08 21:05 49.77174 5.94440 24100 ft 352 kts 249°
2026-05-08 21:05 49.76285 5.90908 24099 ft 353 kts 249°
2026-05-08 21:05 49.75396 5.87373 24101 ft 353 kts 249°
2026-05-08 21:05 49.74503 5.83838 24101 ft 353 kts 249°
2026-05-08 21:06 49.73607 5.80305 24099 ft 353 kts 249°
2026-05-08 21:06 49.72711 5.76773 24099 ft 353 kts 249°
2026-05-08 21:06 49.71813 5.73241 24101 ft 353 kts 249°
2026-05-08 21:06 49.70911 5.69706 24097 ft 353 kts 249°
2026-05-08 21:07 49.70010 5.66177 24101 ft 354 kts 249°
2026-05-08 21:07 49.69116 5.62694 24099 ft 354 kts 249°
2026-05-08 21:07 49.68207 5.59162 24095 ft 354 kts 249°
2026-05-08 21:07 49.67297 5.55627 24096 ft 354 kts 249°
2026-05-08 21:08 49.66388 5.52093 24097 ft 354 kts 249°
2026-05-08 21:08 49.65479 5.48557 24095 ft 355 kts 249°
2026-05-08 21:08 49.64565 5.45020 24096 ft 355 kts 249°
2026-05-08 21:08 49.63647 5.41487 24099 ft 355 kts 249°
2026-05-08 21:09 49.62728 5.37948 24096 ft 355 kts 249°
2026-05-08 21:09 49.61867 5.34435 24096 ft 355 kts 252°
2026-05-08 21:09 49.61068 5.30831 24093 ft 355 kts 253°
2026-05-08 21:09 49.60306 5.27205 24093 ft 355 kts 253°
2026-05-08 21:10 49.59575 5.23572 24091 ft 355 kts 257°
2026-05-08 21:10 49.59184 5.19834 24091 ft 353 kts 268°
2026-05-08 21:10 49.59195 5.16053 24093 ft 352 kts 273°
2026-05-08 21:10 49.59244 5.12276 24094 ft 353 kts 272°
2026-05-08 21:11 49.59274 5.08497 24091 ft 353 kts 272°
2026-05-08 21:11 49.59296 5.04764 24091 ft 353 kts 272°
2026-05-08 21:11 49.59318 5.00982 24089 ft 353 kts 272°
2026-05-08 21:11 49.59340 4.97197 24089 ft 353 kts 272°
2026-05-08 21:12 49.59365 4.93411 24090 ft 353 kts 272°
2026-05-08 21:12 49.59391 4.89628 24088 ft 354 kts 272°
2026-05-08 21:12 49.59415 4.85838 24089 ft 354 kts 272°
2026-05-08 21:12 49.59438 4.82044 24085 ft 354 kts 272°
2026-05-08 21:13 49.59460 4.78255 24087 ft 354 kts 272°
2026-05-08 21:13 49.59481 4.74464 24087 ft 354 kts 272°
2026-05-08 21:13 49.59503 4.70724 24089 ft 354 kts 272°
2026-05-08 21:13 49.59523 4.66933 24087 ft 354 kts 272°
2026-05-08 21:14 49.59541 4.63139 23979 ft 354 kts 272°
2026-05-08 21:14 49.59558 4.59363 23535 ft 352 kts 272°
2026-05-08 21:14 49.59573 4.55605 23035 ft 350 kts 272°
2026-05-08 21:14 49.59584 4.51870 22562 ft 347 kts 272°
2026-05-08 21:15 49.59596 4.48161 22112 ft 345 kts 272°
2026-05-08 21:15 49.59607 4.44480 21673 ft 342 kts 271°
2026-05-08 21:15 49.59619 4.40870 21247 ft 340 kts 271°
2026-05-08 21:15 49.59628 4.37237 20828 ft 338 kts 271°
2026-05-08 21:16 49.59636 4.33624 20414 ft 336 kts 271°
2026-05-08 21:16 49.59644 4.30030 20019 ft 334 kts 271°
2026-05-08 21:16 49.59648 4.26461 19628 ft 332 kts 271°
2026-05-08 21:16 49.59650 4.22917 19250 ft 330 kts 270°
2026-05-08 21:17 49.59648 4.19384 18873 ft 328 kts 270°
2026-05-08 21:17 49.59649 4.15874 18502 ft 327 kts 270°
2026-05-08 21:17 49.59655 4.12429 18110 ft 325 kts 270°
2026-05-08 21:17 49.59567 4.08967 17705 ft 322 kts 261°
2026-05-08 21:18 49.58995 4.05654 17328 ft 319 kts 247°
2026-05-08 21:18 49.57952 4.02661 16954 ft 316 kts 236°
2026-05-08 21:18 49.56751 3.99832 16577 ft 314 kts 236°
2026-05-08 21:18 49.55562 3.97019 16223 ft 312 kts 236°
2026-05-08 21:19 49.54382 3.94220 15877 ft 311 kts 237°
2026-05-08 21:19 49.53210 3.91436 15533 ft 309 kts 237°
2026-05-08 21:19 49.52061 3.88707 15195 ft 307 kts 237°
2026-05-08 21:19 49.50901 3.85959 14868 ft 305 kts 237°
2026-05-08 21:20 49.49750 3.83230 14541 ft 303 kts 237°
2026-05-08 21:20 49.48606 3.80520 14232 ft 301 kts 237°
2026-05-08 21:20 49.47571 3.77730 13909 ft 300 kts 246°
2026-05-08 21:20 49.46943 3.74692 13556 ft 298 kts 256°
2026-05-08 21:21 49.46438 3.71612 13197 ft 296 kts 255°
2026-05-08 21:21 49.45925 3.68556 12840 ft 294 kts 255°
2026-05-08 21:21 49.45407 3.65527 12486 ft 292 kts 255°
2026-05-08 21:21 49.44892 3.62519 12130 ft 290 kts 255°
2026-05-08 21:22 49.44393 3.59576 11796 ft 288 kts 255°
2026-05-08 21:22 49.43889 3.56610 11449 ft 286 kts 255°
2026-05-08 21:22 49.43383 3.53664 11139 ft 284 kts 255°
2026-05-08 21:22 49.42883 3.50735 11085 ft 284 kts 255°
2026-05-08 21:23 49.42380 3.47792 11088 ft 285 kts 255°
2026-05-08 21:23 49.41845 3.44866 11090 ft 284 kts 250°
2026-05-08 21:23 49.41104 3.42047 11092 ft 285 kts 247°
2026-05-08 21:23 49.40351 3.39235 11093 ft 285 kts 247°
2026-05-08 21:24 49.39599 3.36424 11093 ft 285 kts 247°
2026-05-08 21:24 49.38848 3.33609 11094 ft 285 kts 248°
2026-05-08 21:24 49.38095 3.30793 11092 ft 285 kts 247°
2026-05-08 21:24 49.37340 3.27977 11095 ft 285 kts 247°
2026-05-08 21:25 49.36587 3.25165 11094 ft 285 kts 248°
2026-05-08 21:25 49.35835 3.22351 11097 ft 285 kts 248°
2026-05-08 21:25 49.35080 3.19537 11095 ft 285 kts 248°
2026-05-08 21:25 49.34335 3.16761 11096 ft 285 kts 248°
2026-05-08 21:26 49.33578 3.13946 11095 ft 285 kts 247°
2026-05-08 21:26 49.32819 3.11135 11096 ft 285 kts 247°
2026-05-08 21:26 49.32059 3.08326 11096 ft 285 kts 247°
2026-05-08 21:26 49.31296 3.05515 11082 ft 285 kts 247°
2026-05-08 21:27 49.30535 3.02708 11084 ft 285 kts 247°
2026-05-08 21:27 49.29774 2.99897 11092 ft 285 kts 247°
2026-05-08 21:27 49.29013 2.97092 11092 ft 285 kts 247°
2026-05-08 21:27 49.28261 2.94325 11088 ft 285 kts 247°
2026-05-08 21:28 49.27498 2.91518 11097 ft 286 kts 247°
2026-05-08 21:28 49.26735 2.88714 11083 ft 286 kts 247°
2026-05-08 21:28 49.25969 2.85906 11081 ft 286 kts 247°
2026-05-08 21:28 49.25460 2.84046 11091 ft 286 kts 247°
2026-05-08 21:29 49.24482 2.80481 11090 ft 286 kts 247°
2026-05-08 21:29 49.23702 2.77641 11090 ft 286 kts 247°
2026-05-08 21:29 49.22931 2.74832 11082 ft 286 kts 247°
2026-05-08 21:29 49.22159 2.72027 11081 ft 286 kts 247°
2026-05-08 21:30 49.21384 2.69224 11090 ft 286 kts 247°
2026-05-08 21:30 49.20607 2.66415 11085 ft 286 kts 247°
2026-05-08 21:30 49.19842 2.63649 11081 ft 287 kts 247°
2026-05-08 21:30 49.19067 2.60840 11080 ft 286 kts 247°
2026-05-08 21:31 49.18344 2.58023 10754 ft 284 kts 254°
2026-05-08 21:31 49.18051 2.55053 10348 ft 284 kts 268°
2026-05-08 21:31 49.17996 2.52019 9875 ft 286 kts 268°
2026-05-08 21:31 49.17936 2.48977 9423 ft 286 kts 268°
2026-05-08 21:32 49.17870 2.45946 8997 ft 285 kts 268°
2026-05-08 21:32 49.17803 2.42938 8534 ft 283 kts 267°
2026-05-08 21:32 49.17735 2.39942 8038 ft 281 kts 267°
2026-05-08 21:32 49.17669 2.37007 7507 ft 280 kts 268°
2026-05-08 21:33 49.17619 2.34044 6962 ft 278 kts 268°
2026-05-08 21:33 49.17589 2.31093 6423 ft 277 kts 269°
2026-05-08 21:33 49.17566 2.28165 5978 ft 272 kts 269°
2026-05-08 21:33 49.17544 2.25278 5852 ft 272 kts 269°
2026-05-08 21:34 49.17518 2.22384 5778 ft 273 kts 268°
2026-05-08 21:34 49.17488 2.19486 5716 ft 273 kts 268°
2026-05-08 21:34 49.17458 2.16587 5586 ft 272 kts 269°
2026-05-08 21:34 49.17340 2.13710 5394 ft 270 kts 256°
2026-05-08 21:35 49.16529 2.11184 4968 ft 265 kts 227°
2026-05-08 21:35 49.15025 2.09634 4761 ft 264 kts 198°
2026-05-08 21:35 49.13241 2.09371 4561 ft 263 kts 170°
2026-05-08 21:35 49.11532 2.10311 4383 ft 262 kts 156°
2026-05-08 21:36 49.09818 2.11264 4232 ft 260 kts 161°
2026-05-08 21:36 49.08124 2.12014 4072 ft 247 kts 163°
2026-05-08 21:36 49.06518 2.12714 3988 ft 233 kts 162°
2026-05-08 21:36 49.05064 2.13574 3911 ft 218 kts 147°
2026-05-08 21:37 49.03919 2.14945 3960 ft 204 kts 137°
2026-05-08 21:37 49.02863 2.16395 4042 ft 205 kts 137°
2026-05-08 21:37 49.01809 2.17860 4098 ft 205 kts 135°
2026-05-08 21:37 49.01025 2.19633 4084 ft 197 kts 111°
2026-05-08 21:38 49.00773 2.21584 4035 ft 188 kts 90°
2026-05-08 21:38 49.00871 2.23551 4003 ft 186 kts 85°
2026-05-08 21:38 49.00982 2.25510 3885 ft 185 kts 85°
2026-05-08 21:38 49.01088 2.27465 3674 ft 185 kts 85°
2026-05-08 21:39 49.01197 2.29416 3436 ft 185 kts 85°
2026-05-08 21:39 49.01309 2.31378 3155 ft 187 kts 85°
2026-05-08 21:39 49.01421 2.33347 2914 ft 186 kts 85°
2026-05-08 21:39 49.01527 2.35283 2718 ft 181 kts 85°
2026-05-08 21:40 49.01629 2.37172 2456 ft 178 kts 85°
2026-05-08 21:40 49.01727 2.39004 2202 ft 175 kts 85°
2026-05-08 21:40 49.01824 2.40791 1941 ft 159 kts 85°
2026-05-08 21:41 49.01989 2.43728 1524 ft 126 kts 84°
2026-05-08 21:41 49.02063 2.45033 1365 ft 122 kts 84°
2026-05-08 21:41 49.02136 2.46315 1212 ft 121 kts 84°
2026-05-08 21:41 49.02209 2.47595 1048 ft 122 kts 84°
2026-05-08 21:42 49.02277 2.48885 903 ft 122 kts 83°
2026-05-08 21:42 49.02346 2.50181 696 ft 124 kts 83°
2026-05-08 21:42 49.02414 2.51470 549 ft 124 kts 84°
2026-05-08 21:42 49.02482 2.52772 385 ft 123 kts 83°
2026-05-08 21:43 49.02551 2.53949 360 ft 81 kts 85°
2026-05-08 21:43 49.02566 2.54461 352 ft 34 kts 104°
2026-05-08 21:43 49.02504 2.54790 359 ft 31 kts 104°
2026-05-08 21:43 49.02456 2.55065 355 ft 23 kts 105°
2026-05-08 21:44 49.02445 2.55180 355 ft 13 kts 85°
2026-05-08 21:44 49.02452 2.55299 358 ft 10 kts 85°
2026-05-08 21:44 49.02458 2.55410 355 ft 11 kts 86°
2026-05-08 21:44 49.02460 2.55535 361 ft 13 kts 99°
2026-05-08 21:45 49.02398 2.55612 355 ft 13 kts 175°
2026-05-08 21:45 49.02271 2.55631 354 ft 15 kts 174°
2026-05-08 21:45 49.02164 2.55643 355 ft 13 kts 175°
2026-05-08 21:45 49.02112 2.55650 355 ft 4 kts 176°
2026-05-08 21:46 49.02087 2.55652 357 ft 7 kts 175°
2026-05-08 21:46 49.02039 2.55658 355 ft 8 kts 175°
2026-05-08 21:46 49.01983 2.55665 355 ft 9 kts 175°
2026-05-08 21:46 49.01920 2.55667 360 ft 9 kts 195°
2026-05-08 21:47 49.01887 2.55588 363 ft 9 kts 265°
2026-05-08 21:47 49.01882 2.55481 358 ft 11 kts 264°
2026-05-08 21:47 49.01875 2.55363 355 ft 12 kts 265°
2026-05-08 21:47 49.01869 2.55217 355 ft 15 kts 266°
2026-05-08 21:48 49.01859 2.55054 357 ft 16 kts 265°
2026-05-08 21:48 49.01850 2.54882 355 ft 17 kts 265°
2026-05-08 21:48 49.01839 2.54697 355 ft 18 kts 265°
2026-05-08 21:48 49.01828 2.54502 357 ft 19 kts 266°
2026-05-08 21:49 49.01820 2.54296 355 ft 20 kts 266°
2026-05-08 21:49 49.01810 2.54111 356 ft 17 kts 265°
2026-05-08 21:49 49.01763 2.54002 355 ft 13 kts 222°
2026-05-08 21:49 49.01715 2.53934 358 ft 7 kts 220°
2026-05-08 21:50 49.01667 2.53911 354 ft 7 kts 192°
2026-05-08 21:50 49.01652 2.53905 354 ft 0 kts 193°
2026-05-08 21:50 49.01645 2.53903 354 ft 2 kts 193°
2026-05-08 21:50 49.01643 2.53902 354 ft 0 kts 193°